Location: Bonac
(42.8765°N, 0.9753°E)
Time: 16:02:34
(UTC+00:00)

Nadezhda 3 Rocket - Pass Details

Date: 12 January 2026
Orbit: 956 x 997 km, 82.9° (Epoch: 18 February)

Event Time Altitude Azimuth Distance (km) Brightness Sun altitude
Rises 18:12:04 0° 164° (SSE) 3,625 7.0 -15.8°
Reaches altitude 10° 18:14:41 10° 157° (SSE) 2,681 6.2 -16.3°
Maximum altitude 18:20:21 41° 89° (E) 1,355 4.3 -17.3°
Drops below altitude 10° 18:26:03 10° 21° (NNE) 2,698 6.0 -18.3°
Enters shadow 18:27:28 - 17° (NNE) 3,206 6.4 -18.5°
